TimeMST,TemperatureF,Dew PointF,Humidity,Sea Level PressureIn,VisibilityMPH,Wind Direction,Wind SpeedMPH,Gust SpeedMPH,PrecipitationIn,Events,Conditions,WindDirDegrees,DateUTC
12:15 AM,37.4,32.0,81,30.27,10.0,NW,10.4,-,N/A,,Scattered Clouds,320,2013-11-11 07:15:00
12:35 AM,37.4,32.0,81,30.27,10.0,NW,10.4,-,N/A,,Scattered Clouds,320,2013-11-11 07:35:00
12:55 AM,37.4,32.0,81,30.27,10.0,NNW,11.5,-,N/A,,Clear,330,2013-11-11 07:55:00
1:15 AM,37.4,32.0,81,30.27,10.0,NW,10.4,-,N/A,,Clear,320,2013-11-11 08:15:00
1:35 AM,37.4,30.2,75,30.27,10.0,NW,10.4,-,N/A,,Clear,320,2013-11-11 08:35:00
1:55 AM,35.6,30.2,81,30.28,10.0,NW,9.2,-,N/A,,Clear,320,2013-11-11 08:55:00
2:15 AM,35.6,30.2,81,30.28,10.0,NW,11.5,-,N/A,,Clear,320,2013-11-11 09:15:00
2:35 AM,35.6,30.2,81,30.28,10.0,NW,10.4,-,N/A,,Clear,310,2013-11-11 09:35:00
2:55 AM,35.6,30.2,81,30.28,10.0,NW,10.4,-,N/A,,Clear,320,2013-11-11 09:55:00
3:15 AM,35.6,30.2,81,30.28,10.0,NW,12.7,17.3,N/A,,Clear,320,2013-11-11 10:15:00
3:35 AM,35.6,30.2,81,30.27,10.0,NW,11.5,-,N/A,,Clear,320,2013-11-11 10:35:00
3:55 AM,35.6,30.2,81,30.27,10.0,NW,12.7,-,N/A,,Clear,320,2013-11-11 10:55:00
4:15 AM,35.6,30.2,81,30.28,10.0,NW,12.7,-,N/A,,Clear,320,2013-11-11 11:15:00
4:35 AM,35.6,30.2,81,30.28,10.0,NW,13.8,-,N/A,,Clear,320,2013-11-11 11:35:00
4:55 AM,35.6,30.2,81,30.28,10.0,NW,15.0,18.4,N/A,,Clear,320,2013-11-11 11:55:00
5:15 AM,35.6,28.4,75,30.29,10.0,NW,11.5,-,N/A,,Clear,320,2013-11-11 12:15:00
5:35 AM,35.6,28.4,75,30.30,10.0,NW,11.5,-,N/A,,Clear,320,2013-11-11 12:35:00
5:55 AM,33.8,28.4,81,30.30,10.0,NW,11.5,-,N/A,,Clear,320,2013-11-11 12:55:00
6:47 AM,35.6,28.4,75,30.31,10.0,NW,13.8,-,N/A,,Scattered Clouds,310,2013-11-11 13:47:00
7:47 AM,35.6,26.6,70,30.33,10.0,NW,17.3,-,N/A,,Partly Cloudy,310,2013-11-11 14:47:00
8:47 AM,37.4,28.4,70,30.34,10.0,WNW,11.5,-,N/A,,Partly Cloudy,300,2013-11-11 15:47:00
9:47 AM,42.8,28.4,57,30.36,10.0,NW,11.5,-,N/A,,Partly Cloudy,310,2013-11-11 16:47:00
10:47 AM,46.4,30.2,53,30.36,10.0,NW,6.9,-,N/A,,Scattered Clouds,310,2013-11-11 17:47:00
11:47 AM,51.8,28.4,41,30.36,10.0,NW,4.6,-,N/A,,Scattered Clouds,310,2013-11-11 18:47:00
12:47 PM,55.4,30.2,38,30.34,10.0,ESE,8.1,-,N/A,,Scattered Clouds,120,2013-11-11 19:47:00
1:47 PM,55.4,30.2,38,30.35,10.0,SE,11.5,-,N/A,,Scattered Clouds,130,2013-11-11 20:47:00
2:47 PM,57.2,30.2,36,30.34,10.0,ESE,8.1,-,N/A,,Scattered Clouds,120,2013-11-11 21:47:00
3:47 PM,55.4,32.0,41,30.35,10.0,SE,5.8,-,N/A,,Scattered Clouds,130,2013-11-11 22:47:00
4:50 PM,50.0,32.0,50,30.36,10.0,Calm,Calm,-,N/A,,Scattered Clouds,0,2013-11-11 23:50:00
5:47 PM,46.4,30.2,53,30.38,10.0,Calm,Calm,-,N/A,,Scattered Clouds,0,2013-11-12 00:47:00
6:47 PM,44.6,32.0,61,30.39,10.0,West,9.2,-,N/A,,Partly Cloudy,280,2013-11-12 01:47:00
8:47 PM,42.8,30.2,61,30.42,10.0,WNW,11.5,-,N/A,,Partly Cloudy,300,2013-11-12 03:47:00
9:47 PM,39.2,30.2,70,30.44,10.0,NW,9.2,-,N/A,,Partly Cloudy,310,2013-11-12 04:47:00
10:15 PM,39.2,30.2,70,30.44,10.0,NW,9.2,-,N/A,,Clear,320,2013-11-12 05:15:00
10:35 PM,37.4,30.2,75,30.44,10.0,NNW,10.4,-,N/A,,Clear,330,2013-11-12 05:35:00
10:47 PM,39.2,28.4,65,30.44,10.0,WNW,11.5,-,N/A,,Partly Cloudy,300,2013-11-12 05:47:00
10:55 PM,37.4,30.2,75,30.44,10.0,NW,8.1,-,N/A,,Clear,310,2013-11-12 05:55:00
11:15 PM,39.2,30.2,70,30.45,10.0,NW,9.2,-,N/A,,Clear,320,2013-11-12 06:15:00
11:35 PM,37.4,28.4,70,30.45,10.0,NW,11.5,-,N/A,,Clear,320,2013-11-12 06:35:00
11:55 PM,37.4,28.4,70,30.45,10.0,NW,10.4,-,N/A,,Clear,310,2013-11-12 06:55:00